San Pedro Sula, Honduras

6:52 PM CST on December 04, 2016 (GMT -0600)
La Mesa International

Weather History for MHLM - January, 2013

Change the Weather History Date:

Saturday, January 5, 2013

  Actual Average Record
Temperature  
Mean Temperature 76 °F -  
Max Temperature 84 °F 81 °F 91 °F (1997)
Min Temperature 69 °F 67 °F 64 °F (2011)
Cooling Degree Days 12    
Growing Degree Days 26 (Base 50)    
Moisture  
Dew Point 74 °F    
Average Humidity 92    
Maximum Humidity 100    
Minimum Humidity 66    
Precipitation  
Precipitation 0.00 in - - ()
Sea Level Pressure  
Sea Level Pressure 30.01 in    
Wind  
Wind Speed 3 mph ()    
Max Wind Speed 12 mph    
Max Gust Speed -    
Visibility 6.4 miles    
Events      
Averages and records for this station are not official NWS values.
T = Trace of Precipitation, MM = Missing Value Source: Averaged Metar Reports

Daily Weather History Graph

Daily Weather History Graph

Search for Another Location

Airport or City:

Trip Planner

Search our weather history database for the weather conditions in past years. The results will help you decide how hot, cold, wet, or windy it might be!

Date:

Astronomy

Jan. 05, 2013 Rise Set
Actual Time 6:19 AM CST 5:34 PM CST
Civil Twilight 5:56 AM CST 5:58 PM CST
Nautical Twilight 5:29 AM CST 6:24 PM CST
Astronomical Twilight 5:03 AM CST 6:51 PM CST
Moon No Moon Rise 11:57 AM CST
Length of Visible Light 12h 01m
Length of Day
11h 15m
Last Quarter, 44% of the Moon is Illuminated
Jan 5
Last Quarter
Jan 11
New
Jan 18
First Quarter
Jan 26
Full
Feb 3
Last Quarter

Hourly Weather History & Observations

Time (CST) Temp. Heat Index Dew Point Humidity Pressure Visibility Wind Dir Wind Speed Gust Speed Precip Events Conditions
12:00 AM 73 °F - 73 °F 100% 30.04 in 6 mi East 3.5 mph - -   Haze
12:00 AM 73.4 °F - 73.4 °F 100% 30.04 in 6.2 mi East 3.5 mph - N/A   Scattered Clouds
1:00 AM 73.4 °F - 73.4 °F 100% 30.04 in 6.2 mi ESE 3.5 mph - N/A   Scattered Clouds
2:00 AM 73.4 °F - 73.4 °F 100% 30.01 in 6.2 mi Calm Calm - N/A   Scattered Clouds
3:00 AM 71 °F - 71 °F 100% 30.01 in 6 mi Calm Calm - -   Haze
3:00 AM 71.6 °F - 71.6 °F 100% 30.01 in 6.2 mi Calm Calm - N/A   Partly Cloudy
4:00 AM 71.6 °F - 71.6 °F 100% 30.01 in 6.2 mi South 2.3 mph - N/A   Partly Cloudy
5:00 AM 69.8 °F - 69.8 °F 100% 30.01 in 6.2 mi Calm Calm - N/A   Partly Cloudy
6:00 AM 69.8 °F - 69.8 °F 100% 30.04 in 3.7 mi North 2.3 mph - N/A   Partly Cloudy
7:00 AM 69.8 °F - 69.8 °F 100% 30.06 in 1.9 mi Calm Calm - N/A   Mostly Cloudy
8:00 AM 73.4 °F - 73.4 °F 100% 30.06 in 1.9 mi NNW 2.3 mph - N/A   Scattered Clouds
9:00 AM 76 °F - 76 °F 100% 30.07 in 9 mi Calm Calm - -   Haze
9:00 AM 77.0 °F - 77.0 °F 100% 30.06 in 6.2 mi Calm Calm - N/A   Scattered Clouds
10:00 AM 80.6 °F 87.1 °F 77.0 °F 89% 30.06 in 6.2 mi West 2.3 mph - N/A   Scattered Clouds
11:00 AM 82.4 °F 89.5 °F 75.2 °F 79% 30.04 in 6.2 mi North 3.5 mph - N/A   Partly Cloudy
12:00 PM 83 °F - 74 °F 66%  in 9 mi North 6.9 mph - -  
12:00 PM 84.2 °F 90.9 °F 73.4 °F 70% 30.01 in 6.2 mi North 6.9 mph - N/A   Mostly Cloudy
1:00 PM 82.4 °F 89.5 °F 75.2 °F 79% 29.98 in 6.2 mi NNE 6.9 mph - N/A   Mostly Cloudy
2:00 PM 84.2 °F 94.1 °F 77.0 °F 79% 29.95 in 6.2 mi North 6.9 mph - N/A   Scattered Clouds
3:00 PM 83 °F - 75 °F 71% 29.94 in 9 mi North 11.5 mph - -   Haze
3:00 PM 84.2 °F 92.3 °F 75.2 °F 74% 29.95 in 6.2 mi North 11.5 mph - N/A   Scattered Clouds
4:00 PM 82.4 °F 89.5 °F 75.2 °F 79% 29.95 in 6.2 mi NNE 9.2 mph - N/A   Mostly Cloudy
5:00 PM 80.6 °F 87.1 °F 77.0 °F 89% 29.98 in 6.2 mi NNE 6.9 mph - N/A   Mostly Cloudy
6:00 PM 79 °F - 76 °F 87% 29.98 in 9 mi North 6.9 mph - -   Haze
6:00 PM 78.8 °F - 75.2 °F 89% 29.98 in 6.2 mi North 6.9 mph - N/A   Scattered Clouds
7:00 PM 77.0 °F - 77.0 °F 100% 30.01 in 6.2 mi North 4.6 mph - N/A   Scattered Clouds
8:00 PM 77.0 °F - 75.2 °F 94% 30.01 in 6.2 mi Calm Calm - N/A   Scattered Clouds
9:00 PM 75 °F - 75 °F 100% 30.03 in 14 mi Calm Calm - -   Haze
9:00 PM 75.2 °F - 75.2 °F 100% 30.04 in 6.2 mi Calm Calm - N/A   Partly Cloudy
10:00 PM 75.2 °F - 75.2 °F 100% 30.04 in 6.2 mi SSE 2.3 mph - N/A   Partly Cloudy
11:00 PM 73.4 °F - 73.4 °F 100% 30.01 in 6.2 mi Calm Calm - N/A   Partly Cloudy